Погода в Урдоме

Россия / Архангельская область     61°45′31″N   48°32′25″E
темп.,
°C
ветер,
м/с
пор.,
м/с
влажн.,
%
обл.,
%
осадки,
мм/ч
давл.,
гПа
погр.,
м
24 января, пн
пн2400:00−17ююз2710099 0.0 1029127
03:00−14ююз399790 0.1 1029230
06:00−14ююз31096100 0.0 1028283
09:00−12ююз41493100 0.0 1026410
12:00−9юз5149075 0.0 1025524
15:00−8юз5149199 0.1 1024589
18:00−7юз61592100 0.1 1022612
21:00−7юз61590100 0.2 1021590
25 января, вт
вт2500:00−7юз61689100 0.0 1019594
03:00−6юз61788100 0.1 1017636
06:00−6юз61686100 0.0 1016644
09:00−7юз61788100 0.1 1015679
12:00−7ююз51590100 0.1 1014659
15:00−7ююз51490100 0.2 1013667
18:00−8ююз51392100 0.3 1013689
21:00−8ююз41293100 0.5 1013629
26 января, ср
ср2600:00−9ююз41194100 0.4 1013531
03:00−10ююз499498 0.6 1013425
06:00−11ююз3895100 0.4 1013337
09:00−12ю3795100 0.9 1013266
12:00−11ююз3594100 0.3 1014263
15:00−10ююз2496100 0.9 1014249
18:00−12ю1497100 0.3 101593
21:00−13ююз139891 0.5 101458
27 января, чт
чт2700:00−17зюз0110088 0.1 10149
03:00−21зсз11100100 0.1 10159
06:00−23юз11100100 0.0 10159
09:00−25ююз11100100 0.1 10159
12:00−15ююз129899 0.0 101596
15:00−17ю119966 0.1 10169
18:00−23ю21100100 0.0 101611
21:00−25ю11100100 0.0 101613
28 января, пт
пт2800:00−26ююв11100100 0.0 101622
03:00−22ююв24100100 0.0 101660
06:00−20ююв25100100 0.0 101586
09:00−18ююв2798100 0.0 1015147
12:00−14ююв3793100 0.0 1014251
15:00−14ююв379595 0.0 1014251
18:00−14ююв389696 0.0 1014258
21:00−14ююв289680 0.0 1014226